Flag for Russia Weather past 2 weeks in Sochi, Russia

Now
54 °F

Partly cloudy.


Feels Like: 52 °F
Forecast: 59 / 73 °F
Wind: 6 mph from East

Location: Adler

Current Time: Oct 26, 2014 at 1:32:10 AM

Latest Report: Oct 26, 2014 at 1:00 AM


Visibility: N/A

Pressure: 30.04 "Hg

Humidity: 82%

Dew point: 48 °F

Location of SochiLocation

Historic Weather in Sochi — Graph

°F

Sochi temperature yesterday

Maximum temperature yesterday: 64 °F (at 5:00 PM)
Minimum temperature yesterday: 54 °F (at 10:30 PM)
Average temperature yesterday: 60 °F

Past Weeks' High & Low Weather Summary

 TemperatureHumidityPressure
High75 °F (Oct 23, 1:00 PM)94% (Oct 11, 10:30 PM)30.24 "Hg (Oct 11, 10:30 PM)
Low46 °F (Oct 20, 5:30 AM)25% (Oct 23, 1:00 PM)29.62 "Hg (Oct 18, 5:30 PM)
Average60 °F75%29.97 "Hg
* Reported Midnight between Oct 10 and Oct 11 — Midnight between Oct 25 and Oct 26, Sochi, Weather by CustomWeather, © 2014

Note: Actual official high and low records may vary slightly from our data, if they occured in-between our weather recording intervals... More about our weather records

Advertising

Sochi weather history for previous 24 hours

 ConditionsComfort  
Time TempWeatherWind HumidityBarometerVisibility
12:00 AM
Oct 26
55 °FPartly cloudy.8 mph77%30.04 "HgN/A
11:30 PM
Oct 25
55 °FPartly cloudy.10 mph82%30.04 "HgN/A
11:00 PM55 °FPassing clouds.10 mph82%30.04 "HgN/A
10:30 PM54 °FPartly cloudy.8 mph88%30.04 "HgN/A
10:00 PM55 °FPassing clouds.8 mph88%30.04 "HgN/A
9:30 PM57 °FPassing clouds.6 mph94%30.04 "Hg5 mi
9:00 PM59 °FPassing clouds.3 mph88%30.04 "Hg4 mi
8:30 PM59 °FPassing clouds.1 mph88%30.04 "Hg6 mi
8:00 PM59 °FPartly cloudy.No wind88%30.01 "HgN/A
7:30 PM61 °FPassing clouds.No wind83%30.01 "HgN/A
7:00 PM59 °FPartly sunny.1 mph88%30.01 "HgN/A
6:30 PM61 °FPartly sunny.1 mph83%30.01 "HgN/A
6:00 PM61 °FPartly sunny.3 mph83%30.01 "HgN/A
5:30 PM61 °FPartly sunny.6 mph83%30.01 "HgN/A
5:00 PM64 °FPartly sunny.3 mph78%30.01 "HgN/A
4:30 PM63 °FPartly sunny.No wind83%29.98 "HgN/A
4:00 PM63 °FMostly cloudy.No wind83%29.98 "HgN/A
3:30 PM61 °FMostly cloudy.3 mph83%30.01 "HgN/A
3:00 PM61 °FMostly cloudy.6 mph88%30.01 "HgN/A
2:30 PM63 °FMore clouds than sun.3 mph83%30.01 "HgN/A
2:00 PM61 °FMore clouds than sun.3 mph88%30.01 "HgN/A
1:30 PM61 °FMostly cloudy.6 mph88%30.01 "HgN/A
1:00 PM63 °FMore clouds than sun.8 mph83%29.98 "HgN/A
12:30 PM63 °FBroken clouds.3 mph83%29.98 "HgN/A
12:00 PM63 °FBroken clouds.3 mph88%30.01 "HgN/A
11:30 AM63 °FBroken clouds.No wind88%30.01 "HgN/A
11:00 AM63 °FPartly sunny.3 mph83%30.01 "HgN/A
10:30 AM61 °FMostly cloudy.3 mph94%30.01 "HgN/A
10:00 AM61 °FMostly cloudy.8 mph94%30.01 "HgN/A
9:30 AM63 °FMostly cloudy.6 mph88%30.01 "HgN/A
9:00 AM63 °FMostly cloudy.3 mph88%29.98 "HgN/A
8:30 AM63 °FSprinkles. Mostly cloudy.3 mph88%29.98 "HgN/A
8:00 AM61 °FMostly cloudy.3 mph88%29.98 "HgN/A
7:30 AM61 °FOvercast.3 mph88%29.98 "HgN/A
6:30 AM61 °FOvercast.6 mph88%29.98 "HgN/A
6:00 AM59 °FOvercast.8 mph94%29.98 "HgN/A
5:30 AM61 °FOvercast.6 mph88%29.98 "HgN/A
5:00 AM61 °FSprinkles. Overcast.1 mph88%29.98 "Hg5 mi
4:30 AM61 °FSprinkles. Overcast.8 mph88%29.95 "HgN/A
4:00 AM59 °FSprinkles. Overcast.6 mph94%29.98 "Hg6 mi
3:30 AM61 °FSprinkles. Mostly cloudy.10 mph88%29.98 "HgN/A
3:00 AM61 °FSprinkles. Mostly cloudy.10 mph88%29.98 "HgN/A
2:30 AM61 °FSprinkles. Mostly cloudy.15 mph88%29.98 "HgN/A
2:00 AM59 °FSprinkles. Overcast.15 mph94%29.98 "Hg4 mi
1:30 AM59 °FSprinkles. Overcast.13 mph94%30.01 "Hg6 mi
1:00 AM59 °FSprinkles. Mostly cloudy.10 mph94%30.01 "Hg6 mi
Weather by CustomWeather, © 2014

See weather overviewHow to use our weather pages